Weather in Frenstat pod Radhostem

Czech Republic     49°32′52″N   18°12′27″E
temp.,
°C
wind,
m/s
gust,
m/s
humid.,
%
clouds,
%
prec.,
mm/h
press.,
hPa
HPBL,
m
20 june, sun
sun2023:00+17s228814 1.1 101524
02:00+17sse22890 1.2 101520
05:00+16sse22900 0.0 101327
08:00+22sw11710 0.0 1014254
11:00+27nw22492 0.2 10131473
14:00+27n324640 0.4 10121726
17:00+28nw12417 0.1 10111728
20:00+22s11706 0.1 101011
21 june, mon
mon2123:00+19sse22781 0.0 101124
02:00+18sse227910 0.0 101028
05:00+17sse22825 0.0 100937
08:00+24sse136158 0.0 1009344
11:00+27ssw334529 0.0 10082029
14:00+30s233533 0.0 10072652
17:00+28wsw234572 0.0 10071383
20:00+23sse11741 0.5 100714
22 june, tue
tue2223:00+17n3599100 3.5 1010279
02:00+17ne2599100 10.4 1010319
05:00+17nne1197100 2.2 100925
08:00+17nne2396100 2.3 1011340
11:00+20nne238488 0.1 1012583
14:00+25nne336132 0.4 10111094
17:00+24nne336829 2.1 1012863
20:00+21nne228810 3.4 101255
23 june, wed
wed2323:00+18ene21960 0.3 101220
02:00+17e229450 0.3 101219
05:00+17se119346 1.4 101212
08:00+20w11889 1.4 1014221
11:00+22wsw337779 0.3 1015818
14:00+25w44520 0.3 10151142
17:00+24wnw34520 0.0 1016984
20:00+19wnw11770 0.0 101711
24 june, thu
thu2423:00+15nne239720 0.0 101969
02:00+15nne249890 0.2 1019236
05:00+14nne239895 0.1 1018165
08:00+17nne238648 0.1 1018304
11:00+23n24620 0.1 1017734
14:00+28nnw24517 0.3 10151074
17:00+28w25530 0.5 10141247
20:00+18wnw3597100 12.5 1013390